Tracking 30986 objects as of 10-Jul-2025
HD Live streaming from Space Station
objects crossing your sky now

GENMAT-1

Track GENMAT-1 now!
10-day predictions


NORAD ID: 58276
Int'l Code: 2023-174W
Perigee: 489.3 km
Apogee: 499.1 km
Inclination: 97.4 °
Period: 94.3 minutes
Semi major axis: 6865 km
RCS: Unknown
Launch date: November 11, 2023
Source: United States (US)
Launch site: AIR FORCE WESTERN TEST RANGE (AFWTR)
Your satellite tracking list
Your tracking list is empty




NASA's NSSDC Master Catalog

Two Line Element Set (TLE):
1 58276U 23174W   25190.45731319  .00004755  00000-0  18633-3 0  9990
2 58276  97.4048 265.1126 0007091 331.5481  28.5369 15.26239795 92550
Source of the keplerian elements: AFSPC